Regional Weather Roundup
Issued by NWS

Home | Current Version | Previous Version | Graphics & Text | Print | Product List | Glossary On
Versions: 1 2 3 4 5 6 7 8 9 10 11 12 13 14 15 16 17 18 19 20 21 22 23 24 25 26 27 28 29 30 31 32 33 34 35 36 37 38 39 40 41 42 43 44 45 46 47 48 49 50
629
ASUS45 KTFX 241410
RWRMT
MONTANA REGIONAL WEATHER ROUNDUP
NATIONAL WEATHER SERVICE GREAT FALLS MT
800 AM MDT SUN JUL 24 2016

NOTE: "FAIR" INDICATES FEW OR NO CLOUDS BELOW 12000 FEET WITH NO
SIGNIFICANT WEATHER AND/OR OBSTRUCTIONS TO VISIBILITY.

MTZ001>007-043-241500-
WEST OF THE DIVIDE

CITY           SKY/WX    TMP DP  RH WIND       PRES   REMARKS
KALISPELL      SUNNY     56  49  77 NE8       30.16R
MISSOULA       SUNNY     55  44  66 CALM      30.20R
BUTTE          SUNNY     48  36  63 CALM      30.26R
MULLAN PASS    SUNNY     52  39  61 SE3       30.25R
ANACONDA         N/A     57  37  47 CALM      30.23S
DEER LODGE       N/A     54  41  62 CALM      30.25S
EUREKA           N/A     55  46  71 E3        30.16R
HAMILTON         N/A     57  43  58 CALM      30.20S
LIBBY            N/A     54  43  66 CALM      30.17S
PLAINS           N/A     52  45  77 CALM      30.17R
RONAN            N/A     56  49  77 CALM      30.19S
$$

MTZ008-052>055-241500-
SOUTHWEST MONTANA

CITY           SKY/WX    TMP DP  RH WIND       PRES   REMARKS
BOZEMAN        SUNNY     57  41  55 S5        30.21R
DILLON         SUNNY     53  41  63 SW8       30.23R
W YELLOWSTONE  SUNNY     45  37  76 CALM      30.32R
ENNIS          SUNNY     55  39  54 CALM      30.28S
$$

MTZ009-010-012-014-046-048-049-054-241500-
EAST SLOPES AND CENTRAL MONTANA

CITY           SKY/WX    TMP DP  RH WIND       PRES   REMARKS
CUT BANK       SUNNY     61  43  51 W12       30.12R
GREAT FALLS    SUNNY     62  40  44 S6        30.12F
MALMSTROM AFB  SUNNY     59  43  55 W3        30.13R
HELENA         SUNNY     60  39  45 N3        30.17F
CHOTEAU          N/A     61  39  44 S5        30.14S
CONRAD           N/A     57  49  75 CALM      30.12S
$$

MTZ011-013-016-021-045-047-050-051-241500-
NORTH CENTRAL MONTANA

CITY           SKY/WX    TMP DP  RH WIND       PRES   REMARKS
HAVRE          SUNNY     61  49  64 SW14      30.06S
LEWISTOWN      SUNNY     61  44  53 CALM      30.15S
N BAR RANCH      N/A     64  43  45 CALM      30.17S
CHINOOK          N/A     61  54  77 W7        30.05S
$$

MTZ017>020-022>027-061-062-241500-
NORTHEAST MONTANA

CITY           SKY/WX    TMP DP  RH WIND       PRES   REMARKS
GLASGOW        SUNNY     64  56  75 SE6       30.05R
JORDAN           N/A     64  52  64 W3        30.07S
SIDNEY         SUNNY     63  56  78 S5        30.06S
WOLF POINT     SUNNY     63  52  67 CALM      30.06S
PLENTYWOOD       N/A     63  54  72 NW6       30.05R
POPLAR           N/A     63  54  72 SW8       30.06S
SCOBEY           N/A     76  60  57 CALM      30.04R
$$

MTZ028>42-056>058-241500-
SOUTHCENTRAL AND SOUTHEAST MONTANA

CITY           SKY/WX    TMP DP  RH WIND       PRES   REMARKS
BAKER          SUNNY     66  54  65 CALM      30.11R
BILLINGS       SUNNY     62  47  57 SW8       30.13R
LIVINGSTON     SUNNY     58  38  47 NW9       30.19S
MILES CITY     SUNNY     67  48  50 SE6       30.08R
EKALAKA          N/A     70  50  49 SE3       30.10R
FORSYTH          N/A     70  52  52 CALM      30.07S
LAUREL           N/A     61  47  59 S5        30.11R
ROUNDUP          N/A     58  45  62 S3        30.03R
$$

REGIONAL REPORTS...DAKOTAS

CITY           SKY/WX    TMP DP  RH WIND       PRES   REMARKS
WILLISTON      SUNNY     65  54  67 SW6       30.04R
MINOT          SUNNY     71  56  58 W14       29.97S
DICKINSON      SUNNY     66  53  63 W9        30.06R
CROSBY           N/A     64  59  82 W8        30.04R
WATFORD CITY     N/A    N/A N/A N/A MISG        N/A
BISMARCK       SUNNY     68  57  68 W7        30.02R
GRAND FORKS    MOSUNNY   70  62  76 W12       29.84S
FARGO          SUNNY     70  62  76 W12       29.89R
BUFFALO SD       N/A     68  50  52 S5        30.06S
RAPID CITY     CLOUDY    66  55  67 SW3       30.14R
$$

REGIONAL REPORTS...WYOMING/IDAHO/WASHINGTON

CITY           SKY/WX    TMP DP  RH WIND       PRES   REMARKS
GILLETTE       PTSUNNY   66  47  50 VRB5      30.17R
SHERIDAN       CLOUDY    69  45  41 E6        30.13R
BUFFALO WY     SUNNY     67  39  35 SE10      30.21R
CODY           SUNNY     63  39  42 CALM      30.20R
YELLOWSTONE LA   N/A     46  39  76 CALM      30.37S
IDAHO FALLS    SUNNY     48  40  73 CALM      30.20R
SALMON         SUNNY     54  39  58 CALM      30.20S
BOISE          SUNNY     62  41  46 S3        30.08R
SPOKANE        SUNNY     60  49  66 NE9       30.14R
$$

REGIONAL REPORTS...ALBERTA

CITY           SKY/WX    TMP DP  RH WIND       PRES   REMARKS
EDMONTON       SUNNY     63  54  72 SW5       29.94F
CALGARY        MOSUNNY   64  41  42 CALM      30.07R
LETHBRIDGE     SUNNY     61  48  63 W9        30.07R
MEDICINE HAT   MOSUNNY   59  52  77 SW10      30.03R
WATERTON GATE    N/A     61  45  55 SW12        N/A
CARDSTON         N/A     59  45  58 SW5         N/A
MILK RIVER       N/A     61  46  59 W12         N/A
ONEFOUR          N/A     64  46  52 W8          N/A
$$

REGIONAL REPORTS...SASKATCHEWAN

CITY           SKY/WX    TMP DP  RH WIND       PRES   REMARKS
SWIFT CURRENT  SUNNY     63  57  82 SW5       30.03S
REGINA         MOSUNNY   63  55  77 NW12      30.00R
SASKATOON      MOSUNNY   61  54  77 NW9       29.97S
VAL MARIE        N/A     61  55  82 NE1         N/A
ROCKGLEN         N/A     66  55  68 W7          N/A
ASSINIBOIA       N/A     61  57  88 SW3         N/A
$$




USA.gov is the U.S. government's official web portal to all federal, state and local government web resources and services.